GFSNGP_sfc_30mbdewp_327.txt.gz
Dewpoint
-8 -6 9 13 17 9 12 16 12 12 13 16 21 23 24 27 27 29 30 30 31 33 34 36 38 40 43 45 50 59 60 61 60 60 60 59 58 57 56 56 55 55 55 55
-11 -3 19 9 9 14 10 12 13 10 12 21 19 27 23 25 26 27 29 30 31 32 34 35 37 38 40 42 45 49 59 60 60 60 60 59 58 58 58 58 58 57 56 56
-11 14 14 4 8 16 8 16 15 10 17 15 18 24 23 25 26 27 29 31 31 32 34 35 36 38 38 39 43 45 45 47 56 60 60 58 58 58 58 58 59 59 59 60
-5 6 0 8 3 18 15 9 11 13 12 17 18 22 18 21 25 28 30 31 33 34 33 34 37 37 38 37 39 39 42 43 45 49 60 59 59 59 59 59 60 59 60 60
8 6 7 2 -3 2 6 13 5 8 11 16 16 10 10 14 17 20 26 30 32 33 34 33 37 35 36 38 36 38 39 40 43 44 47 56 59 59 59 59 59 59 60 59
4 -4 -1 2 -1 -1 1 9 4 5 7 10 13 10 12 13 11 13 17 21 26 35 33 31 35 36 34 34 36 36 38 38 41 43 43 45 48 53 55 59 58 58 58 59
-5 0 5 -4 -2 -0 0 4 3 2 4 6 11 14 12 6 5 6 7 10 18 23 28 28 30 32 33 33 32 34 38 38 38 39 41 43 45 46 49 51 52 52 52 52
-3 -4 -0 -2 -3 1 3 2 1 0 3 6 10 8 6 4 3 2 4 5 7 15 20 23 23 26 31 32 33 33 33 38 38 39 38 39 42 43 44 46 47 47 47 46
-0 -7 -3 -2 -4 -3 -1 -1 -0 1 3 4 3 3 3 4 3 3 2 3 6 6 11 16 20 20 20 28 30 33 31 33 37 38 38 38 38 40 41 43 43 43 43 43
-5 -4 -6 -5 -2 1 1 1 1 3 4 6 7 6 4 4 4 4 3 2 4 6 5 9 13 18 16 19 22 26 32 31 34 37 37 39 39 38 37 39 40 40 41 41
-4 -4 -2 -1 2 2 1 2 3 4 4 4 5 6 6 5 6 6 6 6 7 5 4 6 7 10 15 15 18 22 24 31 29 31 33 38 38 38 39 37 37 39 39 39
-4 -1 0 2 2 3 2 2 4 4 4 4 4 5 5 6 6 8 10 9 8 7 5 6 6 5 8 15 15 18 22 22 26 25 26 32 35 38 37 38 38 38 38 39
1 3 2 2 3 2 3 3 3 5 4 4 3 2 3 5 8 11 11 11 11 10 9 8 7 7 6 10 16 15 16 19 20 23 23 22 26 29 35 38 37 37 38 37
2 1 1 2 2 3 3 4 5 4 4 4 2 3 5 7 9 11 12 14 13 12 11 11 10 9 9 10 9 12 15 17 19 21 21 22 19 22 26 29 34 36 37 37
0 2 3 4 3 3 3 5 5 4 4 3 3 4 7 10 12 13 16 14 14 14 14 13 12 13 13 13 11 11 13 15 17 20 21 21 22 21 23 28 33 38 38 38
3 4 4 3 3 4 5 5 5 5 4 3 4 6 10 12 13 13 14 15 16 16 15 16 15 15 15 15 15 14 14 14 15 16 18 19 20 22 23 25 32 36 36 36
4 3 4 5 8 6 6 6 6 5 4 4 6 9 12 14 14 14 15 16 16 16 17 17 16 16 17 17 16 16 16 15 15 13 14 18 22 25 23 25 27 28 31 36
4 5 6 7 6 7 7 6 5 4 4 7 9 13 15 15 15 16 17 17 17 18 18 17 18 19 19 17 17 17 17 16 15 14 14 15 17 19 26 27 28 29 30 35
7 8 7 7 8 6 5 5 4 6 8 9 13 17 17 18 19 18 18 19 20 18 19 19 20 19 18 18 18 18 18 17 17 16 15 14 16 18 22 26 27 28 29 31
7 6 8 6 5 5 5 6 7 8 10 13 15 18 20 20 20 21 20 19 20 21 22 22 22 21 21 20 20 20 20 19 18 18 20 19 19 21 22 22 23 27 31 34
5 4 4 5 4 5 8 9 9 11 13 14 15 19 19 19 21 24 22 18 19 23 28 24 22 22 22 22 24 22 23 20 18 18 18 20 22 21 21 22 23 26 33 34
4 4 3 3 5 8 9 9 11 13 14 16 19 20 21 19 19 18 19 20 23 22 25 26 23 24 27 26 22 21 22 20 20 20 21 22 21 23 24 23 24 27 34 36
3 2 3 7 9 9 9 12 13 14 17 17 18 20 17 15 15 16 17 19 18 19 19 20 23 26 28 26 25 25 24 23 21 21 21 22 23 24 25 25 25 28 30 35
2 4 7 9 9 10 12 12 14 14 16 18 14 16 14 15 16 16 17 17 19 20 18 20 21 22 24 27 25 24 24 23 23 24 24 24 25 26 26 28 28 28 29 33
3 7 8 9 11 12 14 13 15 15 13 12 13 12 14 15 16 16 16 16 16 17 17 20 24 25 27 29 29 26 25 24 25 25 25 26 26 28 29 28 30 31 33 32
5 9 11 11 12 13 15 16 14 14 13 13 11 14 15 15 15 14 15 16 16 17 18 20 20 20 22 22 22 23 24 23 22 23 25 26 27 27 29 30 31 32 33 33
8 11 12 13 13 15 14 14 14 14 14 11 14 14 14 15 15 14 15 15 16 17 17 18 17 17 18 18 17 17 17 17 17 17 19 19 20 22 22 23 24 25 27 27

GFSNGP_sfc_30mbdewp_330.txt.gz
Dewpoint
-8 -9 12 20 9 8 12 14 11 13 13 14 22 21 21 23 23 23 26 28 29 32 32 33 35 35 39 38 41 44 49 58 61 62 61 60 59 58 57 55 55 54 54 57
-2 16 6 8 17 7 8 12 9 9 13 15 16 22 19 18 21 22 25 27 29 31 33 33 34 35 36 39 39 41 44 46 50 61 61 60 59 59 58 58 55 55 53 55
-4 17 10 1 14 15 17 12 14 9 13 15 14 17 15 15 15 17 20 25 28 30 33 33 34 36 36 35 39 39 40 42 45 48 60 60 59 58 58 57 57 55 55 53
-1 11 -0 1 -1 9 18 6 8 11 13 15 11 13 11 13 15 15 15 19 25 29 32 34 35 36 36 36 36 38 38 40 42 43 47 56 58 58 58 57 58 57 56 56
-2 1 8 -6 -6 -3 12 8 1 2 8 12 11 8 6 11 11 11 13 15 21 21 26 31 32 36 35 35 36 36 37 37 40 41 42 46 53 58 58 58 58 59 58 58
-3 -0 -2 -5 -5 -3 4 11 1 -0 5 8 11 9 9 13 9 9 9 12 13 18 19 25 30 30 32 33 35 35 37 38 37 39 40 41 44 49 55 59 59 60 60 61
-6 0 7 -2 -5 -2 -1 2 3 4 7 11 12 14 14 10 8 7 8 7 9 12 14 18 24 28 29 31 35 36 36 38 38 37 39 40 41 44 46 50 57 58 57 58
-2 -3 1 -3 -3 3 4 5 4 3 7 10 11 11 11 9 8 6 7 6 6 7 10 13 15 24 25 28 31 36 35 37 37 38 37 38 39 40 43 44 45 46 47 47
5 -3 -2 -3 -2 4 3 2 3 5 7 7 7 7 8 8 8 8 7 7 6 8 10 11 10 13 19 22 27 31 35 35 36 36 38 37 37 37 37 40 41 42 42 42
-2 -0 -3 -1 3 3 3 4 5 6 6 7 7 7 7 7 6 7 7 8 10 9 9 9 10 10 10 16 22 24 30 34 34 35 36 38 37 37 37 36 38 38 39 40
-1 3 2 -0 2 2 4 4 3 4 6 6 6 7 4 4 4 7 9 11 11 12 11 9 10 10 9 9 16 20 21 26 33 35 36 36 37 37 37 37 36 36 36 36
3 2 1 2 2 4 4 3 4 5 6 6 6 6 3 4 6 9 11 13 13 14 14 13 11 11 10 10 12 14 18 22 29 33 34 36 35 37 38 37 37 37 36 35
3 3 2 3 3 4 4 4 4 5 6 5 6 5 3 5 8 12 13 13 15 15 14 14 14 12 12 14 15 15 16 18 21 23 29 31 34 34 34 39 37 37 37 37
2 2 2 4 3 5 5 5 6 5 6 6 6 5 5 7 10 12 13 14 15 16 17 17 16 16 16 16 15 15 17 18 18 21 22 25 26 33 33 32 35 33 38 37
1 2 4 4 6 5 5 7 7 6 6 6 6 6 7 9 12 14 15 16 16 16 16 17 17 18 18 19 16 16 17 17 20 21 22 23 23 28 31 33 31 33 38 38
1 6 6 5 5 9 9 7 7 7 7 7 6 7 9 13 16 15 15 16 18 17 17 19 19 19 20 20 20 20 19 20 19 20 20 21 24 26 29 32 34 34 33 36
3 3 7 9 10 8 7 8 6 7 8 8 9 11 13 17 16 16 19 19 18 19 19 18 19 21 23 21 20 20 20 20 19 19 20 19 21 23 25 29 31 32 34 37
7 7 8 7 7 8 9 8 8 7 8 11 13 14 16 16 20 19 16 17 19 21 21 21 21 22 22 21 20 21 21 20 20 20 20 20 21 21 22 24 28 30 30 35
7 6 6 5 6 8 7 7 8 10 12 13 15 18 19 21 16 16 18 21 23 22 24 28 29 24 22 22 23 23 22 21 22 22 22 23 24 25 24 24 26 28 30 32
6 5 5 5 6 6 8 10 11 12 13 15 18 21 20 19 20 21 24 24 24 25 30 24 26 29 25 26 28 25 25 24 24 24 24 23 23 23 25 25 24 23 26 30
5 5 6 6 7 11 12 12 12 13 16 17 18 20 21 22 24 22 19 20 25 24 21 21 20 27 27 28 26 26 25 25 25 24 24 23 24 24 24 25 26 26 28 30
5 5 5 7 10 11 12 11 14 15 15 17 21 23 20 16 16 17 18 21 20 21 20 18 20 23 22 23 24 27 26 25 25 24 24 24 24 24 25 26 26 27 27 28
5 5 6 10 11 11 12 14 14 15 18 17 15 15 14 15 17 18 17 17 20 19 18 20 22 22 24 24 24 26 27 26 25 25 24 24 25 25 26 26 26 27 28 29
5 5 8 11 12 12 13 14 15 14 14 13 13 14 15 18 16 16 19 18 19 19 20 22 19 21 23 24 23 27 30 29 28 29 29 29 29 29 28 28 27 28 29 29
4 7 11 12 12 13 14 15 14 13 13 14 12 15 15 16 17 17 17 18 19 18 18 19 17 20 20 20 20 20 21 19 20 21 22 22 23 24 24 24 25 28 30 31
4 11 12 12 13 15 15 14 14 15 13 12 15 15 16 16 16 16 16 17 17 16 16 18 18 17 18 18 18 17 17 16 15 17 17 17 17 17 18 19 21 23 25 24
8 14 13 13 16 13 15 14 16 15 13 14 14 12 12 11 11 10 12 12 13 14 15 15 13 12 12 12 13 12 13 12 12 12 13 13 14 14 15 16 18 19 18 19

GFSNGP_sfc_30mbdewp_333.txt.gz
Dewpoint
13 7 17 13 11 10 11 12 8 12 11 11 13 17 16 14 18 16 15 16 22 22 26 29 31 32 34 34 36 38 39 41 45 51 55 60 61 60 59 56 58 59 58 59
10 15 13 8 13 15 11 10 8 8 13 15 11 14 17 13 16 16 18 14 18 19 24 29 30 31 35 34 35 38 39 38 42 45 50 56 61 61 59 57 56 57 57 58
5 13 14 -0 10 14 15 12 9 7 12 13 10 9 13 10 15 14 17 16 15 23 22 28 29 32 32 34 35 36 38 38 39 42 44 47 55 61 59 58 56 55 55 57
5 12 -1 -1 10 16 13 6 6 7 8 11 12 13 11 11 15 12 13 16 15 21 23 25 26 31 32 35 34 35 37 38 38 39 41 42 45 58 60 59 58 56 55 54
-0 0 5 -3 -4 -3 11 13 6 8 8 12 14 13 10 14 16 13 12 14 15 18 21 21 27 24 30 33 33 34 35 37 38 37 39 40 41 45 57 58 59 58 56 56
-0 0 3 -0 -3 1 8 10 7 6 10 10 12 8 9 14 12 11 13 12 12 13 18 15 18 23 27 27 32 33 35 37 37 38 37 38 39 41 45 53 58 59 57 57
1 5 6 -1 3 5 3 5 9 6 8 10 9 11 14 13 11 10 10 10 11 10 12 12 15 21 19 26 26 30 35 37 38 38 37 37 38 39 42 45 48 51 58 58
2 -1 -2 7 2 7 8 7 7 6 9 11 11 12 11 11 10 8 8 8 10 11 11 12 14 15 16 19 25 25 31 35 37 38 38 37 36 36 37 39 40 42 44 45
-1 1 6 4 6 5 4 6 6 6 8 8 8 9 9 8 6 6 7 10 11 12 13 14 11 11 13 15 18 20 25 30 36 37 38 37 37 35 34 35 35 37 39 41
2 2 7 8 6 4 5 6 6 6 7 8 8 8 8 5 5 6 10 11 13 14 15 15 14 13 12 13 14 15 17 26 32 35 37 38 36 37 35 33 33 33 35 35
14 9 9 4 4 4 7 6 6 7 7 8 8 7 6 5 5 9 11 13 14 15 16 16 15 15 14 12 16 16 16 19 24 31 36 36 37 36 36 35 34 33 33 35
9 10 7 4 5 6 5 6 7 7 7 7 8 7 6 6 8 11 13 14 15 16 17 17 17 18 18 17 16 16 17 18 20 25 28 35 35 35 37 36 36 36 36 35
4 4 7 7 7 7 7 7 7 8 8 8 8 7 6 8 9 14 15 16 17 17 17 17 18 18 19 20 20 18 18 18 18 22 24 27 31 35 33 36 35 36 35 36
6 5 5 7 7 8 10 10 10 9 9 8 8 7 8 10 13 16 16 16 17 18 18 19 19 20 21 21 20 21 21 19 19 22 24 26 23 30 34 33 32 34 36 34
10 10 8 8 8 10 10 10 9 8 9 8 8 9 11 15 17 17 16 18 19 18 18 20 19 19 20 24 22 21 21 21 22 22 22 23 24 31 35 35 34 34 34 35
7 8 9 10 11 10 9 9 9 9 8 9 11 13 16 18 16 19 20 19 16 16 18 19 20 22 24 24 22 22 22 23 23 22 22 22 22 24 28 31 35 33 33 33
6 7 9 9 9 9 10 10 9 8 11 12 14 16 17 17 20 18 15 16 18 20 21 22 25 29 27 25 23 23 23 23 23 22 23 23 24 24 25 25 27 30 35 36
8 9 9 9 8 10 9 10 11 12 13 15 17 19 21 21 17 17 18 20 22 23 24 30 24 26 29 27 25 25 24 23 23 23 24 25 25 26 25 25 27 26 26 32
9 8 8 8 9 9 11 12 13 14 16 18 20 21 20 19 20 21 23 24 23 24 23 21 21 21 26 27 26 26 27 26 26 25 25 25 24 24 24 25 25 25 26 26
9 8 9 10 11 12 13 14 14 16 17 17 19 19 20 21 21 21 21 21 21 22 18 17 18 19 22 21 22 21 25 27 26 25 25 24 24 24 24 24 25 25 25 27
8 9 9 10 12 13 14 14 16 17 17 19 20 19 18 17 18 20 20 17 19 18 18 19 21 22 19 21 22 22 22 26 26 25 25 24 24 24 24 25 25 25 25 26
8 8 9 11 13 14 14 16 17 17 17 16 16 16 16 17 18 17 18 19 19 19 21 18 17 19 22 23 23 24 25 25 27 27 26 26 25 26 25 26 26 26 26 26
9 7 11 13 14 14 16 17 15 15 15 15 15 16 17 17 17 17 15 20 17 21 18 17 18 20 20 20 21 20 19 20 21 22 23 23 23 23 23 24 25 26 27 28
7 10 14 14 14 15 16 14 14 15 14 13 16 17 17 17 16 17 17 19 17 17 17 16 17 19 18 18 18 18 17 17 17 17 18 18 18 17 17 19 20 21 24 22
8 13 14 13 14 17 15 15 16 15 13 14 16 17 16 16 16 15 15 15 14 15 16 16 14 14 16 14 15 15 15 13 14 14 14 14 14 14 14 15 16 18 17 17
13 14 13 14 16 16 14 16 16 14 14 15 13 14 14 14 13 14 14 13 15 15 15 15 14 13 13 13 12 13 12 11 11 11 11 11 11 11 12 11 12 14 14 14
15 15 14 17 14 16 15 16 14 13 13 13 12 12 14 14 14 14 14 14 14 14 15 15 13 13 12 12 11 11 11 11 10 10 10 10 10 10 10 10 10 11 10 10

GFSNGP_sfc_30mbdewp_339.txt.gz
Dewpoint
15 14 12 12 10 8 5 5 2 4 6 7 9 12 12 15 16 17 18 18 18 18 20 20 19 20 22 24 26 28 31 34 35 37 38 39 39 41 44 47 55 61 60 60
11 15 17 11 10 9 9 8 6 6 6 9 11 14 11 11 13 15 17 19 18 17 19 19 19 19 21 23 24 28 28 32 34 36 37 37 38 38 40 43 47 56 61 60
-3 15 15 3 7 12 10 10 7 2 4 7 7 8 10 11 11 13 16 18 17 17 17 20 19 20 20 23 24 26 28 29 32 34 36 37 37 37 38 39 43 47 58 60
-1 7 1 -0 12 14 9 7 9 9 6 7 8 11 15 11 11 14 15 15 16 17 17 18 19 20 21 22 22 23 25 28 30 32 35 37 36 37 36 37 39 44 50 60
-1 -1 3 2 13 12 9 1 8 7 7 8 11 14 7 9 14 16 14 14 15 17 17 18 19 19 20 21 20 21 24 26 28 30 32 35 36 36 36 36 38 42 48 57
1 -1 -3 4 -0 2 12 3 8 7 7 8 11 6 7 12 16 14 11 12 14 15 17 17 19 20 19 19 20 20 23 25 26 29 30 32 36 35 35 35 36 40 45 52
2 -0 1 8 3 7 4 -1 4 7 9 9 8 8 12 16 13 10 9 12 13 14 16 17 19 19 19 20 21 20 23 24 25 27 28 32 35 36 35 34 35 37 40 42
4 -1 -2 8 10 8 6 8 10 8 7 9 11 13 13 12 8 8 9 12 13 14 16 18 18 19 20 20 22 22 21 22 24 25 27 31 32 35 34 33 33 34 35 36
10 6 11 17 12 13 12 9 7 6 7 9 9 9 10 9 7 8 10 12 14 16 17 18 18 19 20 21 22 22 23 22 22 24 26 28 32 33 33 33 32 32 33 33
10 11 12 16 20 17 15 7 8 7 8 8 8 9 9 7 8 10 11 15 16 17 18 18 18 19 20 20 21 23 22 23 23 23 25 27 30 33 32 31 31 31 31 32
11 12 11 12 18 18 8 7 8 9 9 9 9 9 7 7 9 12 16 17 17 17 18 18 18 18 20 20 22 24 23 22 23 23 24 25 28 30 35 33 32 31 31 32
7 9 10 8 7 7 7 8 9 11 10 10 9 8 8 10 12 17 18 17 17 18 17 16 17 19 21 23 24 24 22 22 23 23 24 24 26 27 33 35 36 36 35 34
9 11 9 8 8 10 10 10 10 11 11 8 9 10 11 14 17 17 18 18 18 17 17 18 20 22 27 29 28 25 23 23 23 23 24 24 25 26 29 33 36 36 36 35
10 9 7 7 7 10 11 11 12 10 10 11 12 14 16 18 18 18 18 18 17 18 20 23 24 21 23 28 25 27 26 25 24 24 24 25 24 26 26 29 32 33 35 35
9 8 6 8 10 11 11 11 9 9 11 13 15 17 18 19 18 18 18 19 20 21 23 18 17 16 18 24 23 23 24 26 26 26 25 25 26 26 26 26 27 29 31 32
8 8 9 9 10 10 9 10 10 11 14 16 18 19 20 19 19 19 20 22 22 19 15 15 16 18 20 22 19 20 20 21 26 27 26 26 26 26 26 26 26 26 26 28
5 6 7 8 9 8 10 11 13 15 17 18 19 21 20 19 18 19 21 19 18 15 16 19 18 19 20 18 19 20 21 20 21 26 26 26 26 25 25 25 24 25 25 26
7 8 9 9 9 10 10 13 15 17 17 20 19 18 18 17 18 16 16 16 15 15 17 16 16 18 18 19 21 21 21 21 21 23 26 26 25 25 25 25 26 26 26 27
10 9 10 10 11 11 13 15 17 18 19 20 17 16 17 17 17 16 15 14 13 12 14 15 17 17 18 19 21 21 23 22 22 24 26 26 26 26 26 26 26 27 27 27
10 11 11 11 13 14 15 17 18 18 18 17 16 15 15 15 16 14 13 14 13 14 14 14 15 16 17 18 18 19 20 20 21 21 21 21 21 21 22 22 22 22 24 24
10 11 11 12 15 16 17 17 17 17 16 16 16 15 15 15 15 14 12 12 14 14 12 13 14 15 16 16 15 16 17 17 17 17 16 16 16 16 16 16 17 18 17 18
11 11 12 14 15 17 17 17 16 16 16 16 15 14 15 14 14 14 14 14 15 16 13 13 13 14 14 14 13 13 12 13 13 14 13 12 13 12 13 13 14 14 14 14
11 11 13 15 16 16 16 16 15 15 16 16 15 14 14 14 15 13 13 15 15 15 14 13 13 14 13 13 13 12 11 11 11 11 11 11 9 10 9 9 10 11 9 10
11 12 14 16 17 15 14 15 14 15 16 15 15 16 15 12 13 14 14 15 14 15 14 14 13 12 12 12 12 12 10 10 9 9 8 8 9 8 8 8 8 8 8 8
12 15 16 17 16 15 15 15 14 15 15 15 15 14 15 14 12 13 14 14 14 14 15 14 13 12 12 12 11 11 11 9 8 8 8 8 8 8 7 8 6 6 6 6
15 16 16 17 17 16 16 16 13 14 15 13 14 14 14 15 14 15 15 14 14 13 14 15 14 13 13 11 11 10 9 9 8 8 8 7 7 7 6 7 6 5 5 5
16 16 17 17 16 15 16 15 13 13 13 12 13 14 15 15 15 14 14 13 11 12 11 10 14 14 13 13 11 10 10 9 9 9 8 8 7 6 6 6 6 5 5 5

GFSNGP_sfc_30mbdewp_342.txt.gz
Dewpoint
11 14 12 10 11 7 3 3 0 -2 4 3 6 7 9 13 12 13 14 17 18 20 18 18 19 20 20 21 23 24 26 28 30 33 35 37 37 38 39 40 42 46 49 57
4 14 14 12 9 10 10 7 6 5 5 7 9 12 9 8 11 11 13 15 17 19 17 18 19 20 21 22 23 24 24 27 27 31 33 34 37 37 38 38 39 41 44 48
-2 13 15 9 8 10 8 9 5 1 1 6 6 7 7 9 12 12 13 15 16 17 17 19 19 21 22 22 23 23 24 25 27 29 31 32 35 35 36 36 37 38 41 45
1 7 -2 -0 11 11 9 9 9 8 8 8 6 9 14 13 11 13 14 13 15 16 17 18 19 21 22 22 23 24 23 24 26 28 29 32 33 34 35 35 36 38 40 43
1 -2 0 2 9 8 9 2 6 8 8 8 11 13 8 8 12 16 16 14 15 16 17 18 19 21 21 22 23 24 23 24 25 27 28 30 32 35 35 35 35 36 38 41
2 -1 -4 -0 4 9 11 4 7 10 7 8 11 6 6 10 17 14 11 11 13 16 16 17 19 20 21 22 23 23 24 24 25 26 27 29 32 34 34 34 34 35 36 38
2 0 -0 5 6 10 8 1 3 6 8 10 7 8 11 16 15 10 10 10 14 15 16 18 18 19 20 21 22 23 24 25 25 25 27 28 31 33 35 33 33 33 34 35
7 1 -3 6 10 10 10 9 9 9 8 8 11 13 12 12 10 8 9 11 14 16 17 19 19 18 19 20 21 22 24 24 25 25 26 28 30 33 34 33 32 32 32 33
9 5 6 14 13 13 12 13 13 9 8 9 9 9 10 10 7 8 11 13 16 17 17 18 18 18 18 20 21 23 25 24 24 25 25 27 29 32 32 33 32 32 32 32
9 9 10 10 15 18 19 17 15 8 8 9 9 10 9 8 8 11 14 16 17 17 18 18 17 17 20 22 23 24 24 23 24 24 25 26 27 30 34 33 32 32 31 31
10 11 11 9 10 13 17 15 8 10 10 10 10 8 8 9 11 14 17 18 18 18 17 17 19 22 25 27 28 27 25 24 24 24 25 25 26 28 32 35 34 33 32 32
6 8 8 10 10 8 7 8 9 10 11 10 8 9 11 12 15 17 18 18 18 17 19 21 24 22 19 26 23 24 26 25 24 24 25 25 26 27 28 31 34 34 34 33
8 11 11 9 8 10 9 9 10 13 10 9 11 12 15 17 17 17 18 18 18 19 22 24 17 16 17 20 24 20 21 25 26 26 25 25 25 26 27 28 29 32 31 33
14 12 8 7 6 8 11 11 12 9 10 12 14 17 18 18 19 19 18 19 21 23 15 15 16 16 19 20 21 18 20 21 23 26 26 26 26 26 27 27 26 26 28 29
11 10 7 6 8 10 11 11 8 9 11 15 18 18 19 19 19 19 20 22 20 15 15 17 17 16 18 20 18 19 19 20 20 22 27 26 26 25 26 26 25 25 26 26
10 9 8 8 9 10 9 9 9 10 15 17 19 20 20 19 18 19 21 16 15 14 16 15 15 16 18 19 19 19 20 21 21 20 25 26 26 25 25 25 25 26 26 27
7 7 8 8 9 9 8 10 12 15 17 19 19 18 18 17 17 15 17 14 14 14 14 15 15 17 18 18 18 20 21 20 21 21 24 26 26 26 26 26 26 26 27 28
7 6 7 8 9 9 9 11 15 17 18 20 17 17 16 16 16 15 15 14 11 12 13 14 15 16 16 17 18 19 20 23 23 23 25 25 25 24 22 23 23 23 24 24
8 7 10 9 9 10 10 14 16 18 19 18 15 15 16 16 15 13 13 13 11 11 13 13 15 15 15 15 16 17 18 19 19 19 19 18 18 18 19 19 20 18 19 20
9 11 11 10 12 12 13 16 18 18 17 17 16 14 14 15 13 12 12 12 14 14 12 12 13 14 14 13 13 14 15 15 15 15 15 15 14 15 15 15 15 14 15 15
10 11 11 12 13 15 16 18 18 17 16 16 15 15 14 15 15 12 12 12 13 14 12 12 12 13 13 14 12 12 12 11 11 11 11 10 11 9 10 10 11 10 9 10
12 11 12 13 14 16 17 18 17 17 16 16 15 14 14 13 13 14 14 13 14 14 13 11 12 13 13 13 13 11 11 10 9 9 9 9 7 8 8 8 8 9 8 8
12 12 12 14 15 16 17 17 16 16 16 15 14 14 14 13 14 12 11 15 15 15 13 14 12 12 12 12 12 11 9 8 8 8 8 8 8 8 7 6 6 7 7 6
12 12 13 15 17 17 15 16 16 15 17 16 16 14 13 12 13 14 14 15 13 14 14 14 13 11 12 12 10 10 10 9 8 8 7 7 8 8 6 7 7 6 6 6
13 13 15 16 16 16 15 15 14 15 16 14 14 15 16 13 10 12 14 14 14 13 14 15 13 12 13 12 11 10 11 10 9 8 8 8 7 7 7 6 6 6 5 4
13 14 15 15 16 16 16 16 14 15 15 14 15 14 14 14 14 14 15 14 13 13 12 12 13 14 13 13 12 11 11 10 10 9 9 8 8 7 6 6 5 5 4 3
14 15 16 16 17 17 17 16 15 14 15 15 14 14 14 15 14 14 14 14 11 10 11 9 10 11 12 12 12 12 12 11 10 10 9 9 8 7 6 5 5 5 5 5

GFSNGP_sfc_30mbdewp_348.txt.gz
Dewpoint
1 -2 -4 5 9 4 4 6 2 -1 3 5 10 12 16 19 18 16 13 13 12 11 11 11 11 14 17 20 22 23 23 24 25 25 29 32 34 36 37 37 38 39 40 42
-4 5 12 5 4 3 2 5 11 9 6 9 8 6 13 16 18 18 16 16 13 11 10 12 12 14 17 18 21 22 23 24 24 25 27 31 33 35 36 36 37 38 39 41
-5 5 11 4 -3 -2 2 5 11 5 4 11 13 11 16 19 19 18 18 15 12 11 11 12 13 15 17 17 19 20 22 23 24 24 26 29 32 34 34 36 36 37 38 40
-2 -2 -1 0 -1 5 7 3 3 10 12 15 16 15 10 11 12 14 14 14 11 11 12 12 13 15 17 17 18 20 21 23 24 24 25 28 31 33 35 36 35 35 36 37
2 -3 -4 -3 -1 4 5 5 4 3 7 11 11 9 8 8 11 12 12 10 10 12 12 12 14 15 16 18 19 20 21 23 24 24 24 27 30 33 35 34 35 35 35 36
0 -0 -4 -3 2 4 7 5 3 5 7 8 11 9 9 11 13 9 9 9 11 12 12 12 14 16 18 20 21 22 23 23 23 23 25 26 30 33 35 35 35 35 35 36
1 3 3 1 4 7 3 -1 5 6 7 9 12 14 13 12 8 7 8 9 11 12 12 13 15 17 19 22 24 25 25 24 23 23 24 26 29 32 34 34 34 35 35 36
1 2 3 3 7 5 4 5 6 7 8 11 12 10 10 8 7 8 9 10 12 12 12 14 16 20 21 21 22 21 22 23 22 23 23 24 27 31 32 33 33 33 34 34
4 0 7 6 2 5 7 7 8 9 10 12 8 9 7 7 8 9 10 12 12 12 13 15 18 19 16 16 17 19 18 20 22 23 23 24 25 28 29 32 30 30 32 32
5 3 4 6 8 7 7 7 7 9 10 9 8 7 7 8 8 11 11 11 12 13 13 15 17 15 15 15 16 17 16 15 20 22 25 24 25 26 28 27 27 26 26 29
7 8 8 6 6 7 5 7 9 8 8 8 8 7 8 8 12 12 12 12 13 14 16 15 13 13 13 14 14 15 15 14 17 21 24 26 26 27 25 25 26 26 27 27
5 5 1 3 6 6 5 6 7 6 7 8 9 9 10 12 13 13 12 13 14 16 13 12 12 12 12 14 15 15 15 15 17 20 21 23 25 25 26 25 26 29 29 29
6 3 2 6 7 6 6 7 6 9 9 8 8 12 13 13 13 13 12 14 13 11 11 11 11 12 14 16 17 16 17 17 17 19 19 21 23 23 24 24 26 29 26 26
13 7 7 9 6 7 8 7 11 9 9 10 11 13 14 12 12 11 12 11 10 11 11 11 12 13 15 17 16 17 18 19 17 19 20 21 22 22 22 22 23 24 25 24
15 12 5 7 7 6 7 9 10 9 8 10 13 15 13 11 10 11 11 10 10 10 11 12 13 14 15 16 16 17 18 20 21 21 22 22 21 21 20 22 22 22 22 22
14 14 11 9 6 5 7 8 9 8 10 12 14 14 13 11 10 9 9 8 9 9 10 12 13 14 15 16 16 17 18 20 20 20 18 18 18 18 19 19 19 19 19 20
12 13 12 10 9 6 6 7 9 9 11 12 14 14 12 10 9 8 7 4 3 5 5 6 9 10 11 13 15 16 17 17 18 17 17 17 17 17 17 17 17 17 17 17
11 10 11 11 10 8 7 9 10 11 12 14 15 13 11 9 7 6 7 5 4 3 3 4 9 8 4 7 9 9 10 10 10 10 10 9 9 7 7 7 9 9 8 9
13 10 12 11 9 8 8 10 11 12 13 16 15 14 11 10 8 6 8 11 11 3 5 4 10 5 3 9 11 5 4 3 2 3 3 4 4 5 5 5 6 7 9 8
16 12 12 11 10 9 10 11 11 13 15 16 17 17 16 16 16 14 9 6 7 7 7 5 5 3 3 7 9 6 6 5 4 5 6 6 6 7 7 7 7 8 11 10
17 16 13 12 11 12 11 11 13 13 15 16 15 16 16 16 17 15 11 5 8 8 8 9 5 4 3 9 7 8 8 6 5 5 7 8 9 8 9 9 9 10 11 11
18 16 15 15 13 12 12 12 13 14 15 15 17 18 16 14 15 14 13 8 8 15 9 5 4 10 8 14 6 8 8 7 6 6 6 8 8 9 10 9 9 10 10 11
18 16 15 15 14 13 13 13 14 15 15 16 18 17 13 10 8 7 6 9 9 11 9 6 12 12 12 11 9 10 9 8 8 8 8 8 8 9 9 8 8 8 9 9
18 17 16 16 15 14 13 14 15 15 15 15 16 14 12 9 7 6 5 11 11 14 11 10 12 13 13 11 11 11 11 10 9 9 8 7 8 9 8 9 8 8 8 8
18 18 17 16 15 14 14 14 15 14 14 15 14 14 12 9 9 7 6 7 13 13 8 13 15 14 13 13 13 12 11 10 9 9 8 7 7 9 8 8 8 8 7 7
18 19 18 17 17 17 16 15 16 16 14 14 14 13 12 10 7 7 6 8 9 11 9 12 15 15 13 12 12 11 10 8 8 7 6 5 6 6 7 7 7 7 7 7
19 19 18 17 17 17 17 18 18 18 16 16 15 14 13 11 10 9 9 10 11 10 10 13 12 12 12 11 11 10 9 8 6 3 4 6 6 7 7 7 7 7 7 8